This is the latest recevied weather packets stored in our database for station/object KCXW. If no packets are shown the sender has not sent any weather packets the latest 10 day(s).
| Time | Temp. | Humidity | Pressure | Rain* | Wind** | Luminosity | Snow |
|---|---|---|---|---|---|---|---|
| 1777905808 | 22.78° C | 53% | 1013.2 hPa | - | - | - | - |
| 1777905207 | 22.78° C | 53% | 1013.2 hPa | - | - | - | - |
| 1777904605 | 22.78° C | 53% | 1013.2 hPa | - | - | - | - |
| 1777904010 | 21.67° C | 56% | 1012.9 hPa | - | - | - | - |
| 1777903405 | 21.67° C | 56% | 1012.9 hPa | - | - | - | - |
| 1777902805 | 20° C | 68% | 1013.2 hPa | - | - | - | - |
| 1777902207 | 20° C | 68% | 1013.2 hPa | - | - | - | - |
| 1777901610 | 18.89° C | 72% | 1013.2 hPa | - | - | - | - |
| 1777901008 | 18.89° C | 72% | 1013.2 hPa | - | - | - | - |
| 1777900407 | 17.78° C | 77% | 1012.9 hPa | - | - | - | - |
| 1777899807 | 17.78° C | 77% | 1012.9 hPa | - | - | - | - |
| 1777899210 | 16.67° C | 82% | 1012.9 hPa | - | - | - | - |
| 1777898610 | 15.56° C | 87% | 1012.5 hPa | - | - | - | - |
| 1777898011 | 15.56° C | 87% | 1012.5 hPa | - | - | - | - |
| 1777897409 | 15.56° C | 87% | 1012.5 hPa | - | - | - | - |
| 1777896806 | 15° C | 93% | 1012.2 hPa | - | - | - | - |
| 1777896207 | 15° C | 93% | 1012.2 hPa | - | - | - | - |
| 1777895606 | 15° C | 87% | 1012.2 hPa | - | - | - | - |
| 1777895009 | 15° C | 87% | 1012.2 hPa | - | - | - | - |
| 1777894408 | 15° C | 93% | 1012.2 hPa | - | - | - | - |
| 1777893808 | 15° C | 93% | 1012.2 hPa | - | - | - | - |
| 1777893211 | 15° C | 87% | 1012.2 hPa | - | - | - | - |
| 1777892606 | 15° C | 87% | 1012.2 hPa | - | - | - | - |
| 1777892011 | 15° C | 93% | 1012.5 hPa | - | - | - | - |
| 1777891408 | 15° C | 93% | 1012.5 hPa | - | - | - | - |
* Rain since midnight (hover to see other rain measurements)
** Current wind speed in m/s (hover to see current wind gust speed)